Crane Lake, MN

3:46 AM CST on December 18, 2017 (GMT -0600)
Crane Lake

Weather History for KCDD - July, 2013

Change the Weather History Date:

Tuesday, July 30, 2013

  Actual Average Record
Temperature  
Mean Temperature 62 °F -  
Max Temperature 75 °F 73 °F 93 °F (2007)
Min Temperature 48 °F 52 °F 15 °F (2001)
Degree Days  
Heating Degree Days 4    
Growing Degree Days 12 (Base 50)    
Moisture  
Dew Point 57 °F    
Average Humidity 88    
Maximum Humidity 100    
Minimum Humidity 65    
Precipitation  
Precipitation 0.00 in - - ()
Sea Level Pressure  
Sea Level Pressure 30.06 in    
Wind  
Wind Speed 1 mph (SSW)    
Max Wind Speed 7 mph    
Max Gust Speed -    
Visibility 10 miles    
Events Rain    
Averages and records for this station are not official NWS values.
T = Trace of Precipitation, MM = Missing Value Source: NWS Daily Summary

Daily Weather History Graph

Daily Weather History Graph

Search for Another Location

Airport or City:

Trip Planner

Search our weather history database for the weather conditions in past years. The results will help you decide how hot, cold, wet, or windy it might be!

Date:

Astronomy

Jul. 30, 2013 Rise Set
Actual Time 5:42 AM CDT 8:48 PM CDT
Civil Twilight 5:05 AM CDT 9:25 PM CDT
Nautical Twilight 4:17 AM CDT 10:13 PM CDT
Astronomical Twilight 3:17 AM CDT 11:12 PM CDT
Moon 12:05 AM CDT (7/30) 3:07 PM CDT (7/30)
Length of Visible Light 16h 19m
Length of Day
15h 05m
Last Quarter, 41% of the Moon is Illuminated
Jul 30
Last Quarter
Aug 6
New
Aug 14
First Quarter
Aug 20
Full
Aug 28
Last Quarter

Hourly Weather History & Observations

Time (CDT) Temp. Dew Point Humidity Pressure Visibility Wind Dir Wind Speed Gust Speed Precip Events Conditions
12:13 AM 48.2 °F 46.4 °F 93% 30.09 in 10.0 mi Calm Calm - N/A   Clear
12:32 AM 48.2 °F 46.4 °F 93% 30.09 in 10.0 mi Calm Calm - N/A   Scattered Clouds
12:53 AM 48.2 °F 46.4 °F 93% 30.09 in 10.0 mi Calm Calm - N/A   Mostly Cloudy
1:13 AM 48.2 °F 46.4 °F 93% 30.09 in 10.0 mi Calm Calm - N/A   Overcast
1:32 AM 50.0 °F 48.2 °F 94% 30.08 in 10.0 mi Calm Calm - N/A   Overcast
1:52 AM 51.8 °F 48.2 °F 88% 30.08 in 10.0 mi Calm Calm - N/A   Overcast
2:13 AM 51.8 °F 48.2 °F 88% 30.09 in 10.0 mi Calm Calm - N/A   Mostly Cloudy
2:33 AM 51.8 °F 48.2 °F 88% 30.08 in 10.0 mi Calm Calm - N/A   Mostly Cloudy
2:52 AM 51.8 °F 50.0 °F 94% 30.08 in 10.0 mi Calm Calm - N/A   Scattered Clouds
3:12 AM 51.8 °F 50.0 °F 94% 30.08 in 10.0 mi Calm Calm - N/A   Clear
3:33 AM 51.8 °F 50.0 °F 94% 30.07 in 10.0 mi Calm Calm - N/A   Mostly Cloudy
3:52 AM 51.8 °F 51.8 °F 100% 30.07 in 10.0 mi Calm Calm - N/A   Overcast
4:13 AM 53.6 °F 51.8 °F 94% 30.07 in 10.0 mi Calm Calm - N/A   Mostly Cloudy
4:33 AM 53.6 °F 51.8 °F 94% 30.07 in 10.0 mi Calm Calm - N/A   Mostly Cloudy
4:53 AM 53.6 °F 51.8 °F 94% 30.07 in 10.0 mi South 3.5 mph - N/A Rain Light Rain
5:12 AM 55.4 °F 53.6 °F 94% 30.07 in 5.0 mi Calm Calm - N/A Rain Rain
5:32 AM 55.4 °F 53.6 °F 94% 30.07 in 10.0 mi Calm Calm - N/A Rain Rain
5:52 AM 55.4 °F 53.6 °F 94% 30.08 in 10.0 mi Calm Calm - N/A Rain Light Rain
6:13 AM 55.4 °F 53.6 °F 94% 30.09 in 10.0 mi Calm Calm - N/A   Overcast
6:32 AM 55.4 °F 53.6 °F 94% 30.09 in 7.0 mi Calm Calm - N/A   Overcast
6:53 AM 55.4 °F 53.6 °F 94% 30.09 in 10.0 mi Calm Calm - N/A   Mostly Cloudy
7:13 AM 55.4 °F 53.6 °F 94% 30.10 in 10.0 mi Calm Calm - N/A   Mostly Cloudy
7:32 AM 55.4 °F 55.4 °F 100% 30.10 in 10.0 mi Calm Calm - N/A   Overcast
7:52 AM 57.2 °F 55.4 °F 94% 30.10 in 10.0 mi Calm Calm - N/A   Overcast
8:13 AM 57.2 °F 55.4 °F 94% 30.10 in 4.0 mi Calm Calm - N/A Rain Heavy Rain
8:32 AM 57.2 °F 55.4 °F 94% 30.10 in 3.0 mi Calm Calm - N/A Rain Rain
8:53 AM 57.2 °F 55.4 °F 94% 30.09 in 4.0 mi Calm Calm - N/A Rain Rain
9:13 AM 59.0 °F 57.2 °F 94% 30.09 in 10.0 mi Calm Calm - N/A   Overcast
9:32 AM 59.0 °F 57.2 °F 94% 30.08 in 10.0 mi South 4.6 mph - N/A   Overcast
9:52 AM 60.8 °F 59.0 °F 94% 30.08 in 10.0 mi South 4.6 mph - N/A   Overcast
10:12 AM 60.8 °F 59.0 °F 94% 30.07 in 10.0 mi South 4.6 mph - N/A   Overcast
10:32 AM 60.8 °F 59.0 °F 94% 30.07 in 10.0 mi South 4.6 mph - N/A   Overcast
10:53 AM 60.8 °F 59.0 °F 94% 30.07 in 10.0 mi South 3.5 mph - N/A Rain Rain
11:12 AM 60.8 °F 59.0 °F 94% 30.07 in 10.0 mi South 3.5 mph - N/A   Overcast
11:32 AM 62.6 °F 60.8 °F 94% 30.07 in 10.0 mi South 6.9 mph - N/A   Overcast
11:53 AM 62.6 °F 60.8 °F 94% 30.07 in 10.0 mi Calm Calm - N/A   Overcast
12:12 PM 62.6 °F 60.8 °F 94% 30.07 in 10.0 mi South 4.6 mph - N/A   Overcast
12:32 PM 62.6 °F 60.8 °F 94% 30.07 in 10.0 mi South 3.5 mph - N/A   Overcast
12:52 PM 64.4 °F 60.8 °F 88% 30.07 in 10.0 mi South 4.6 mph - N/A   Overcast
1:12 PM 64.4 °F 60.8 °F 88% 30.06 in 10.0 mi South 6.9 mph - N/A   Overcast
1:32 PM 66.2 °F 60.8 °F 83% 30.06 in 10.0 mi SW 4.6 mph - N/A   Overcast
1:52 PM 66.2 °F 60.8 °F 83% 30.05 in 10.0 mi South 3.5 mph - N/A   Overcast
2:12 PM 68.0 °F 60.8 °F 78% 30.05 in 10.0 mi SSW 4.6 mph - N/A   Overcast
2:33 PM 69.8 °F 62.6 °F 78% 30.05 in 10.0 mi South 4.6 mph - N/A   Overcast
2:52 PM 69.8 °F 64.4 °F 83% 30.04 in 10.0 mi Calm Calm - N/A   Overcast
3:12 PM 71.6 °F 66.2 °F 83% 30.04 in 10.0 mi Calm Calm - N/A   Mostly Cloudy
3:32 PM 73.4 °F 69.8 °F 88% 30.04 in 10.0 mi SW 3.5 mph - N/A   Mostly Cloudy
3:52 PM 71.6 °F 66.2 °F 83% 30.03 in 10.0 mi WSW 4.6 mph - N/A   Mostly Cloudy
4:12 PM 73.4 °F 64.4 °F 73% 30.03 in 10.0 mi West 5.8 mph - N/A   Scattered Clouds
4:32 PM 73.4 °F 60.8 °F 65% 30.02 in 10.0 mi WSW 5.8 mph - N/A   Scattered Clouds
4:52 PM 73.4 °F 64.4 °F 73% 30.02 in 10.0 mi Calm Calm - N/A   Scattered Clouds
5:12 PM 75.2 °F 62.6 °F 65% 30.02 in 10.0 mi West 3.5 mph - N/A   Scattered Clouds
5:33 PM 73.4 °F 60.8 °F 65% 30.02 in 10.0 mi WSW 3.5 mph - N/A   Clear
5:52 PM 71.6 °F 60.8 °F 69% 30.02 in 10.0 mi Calm Calm - N/A   Clear
6:12 PM 73.4 °F 60.8 °F 65% 30.02 in 10.0 mi SW 3.5 mph - N/A   Clear
6:32 PM 71.6 °F 60.8 °F 69% 30.01 in 10.0 mi Calm Calm - N/A   Clear
6:52 PM 69.8 °F 60.8 °F 73% 30.02 in 10.0 mi Calm Calm - N/A   Clear
7:13 PM 69.8 °F 60.8 °F 73% 30.02 in 10.0 mi Calm Calm - N/A   Clear
7:33 PM 68.0 °F 60.8 °F 78% 30.02 in 10.0 mi Calm Calm - N/A   Clear
7:52 PM 66.2 °F 60.8 °F 83% 30.01 in 10.0 mi Calm Calm - N/A   Clear
8:12 PM 64.4 °F 60.8 °F 88% 30.01 in 10.0 mi Calm Calm - N/A   Clear
8:32 PM 64.4 °F 60.8 °F 88% 30.02 in 10.0 mi Calm Calm - N/A   Clear
8:52 PM 64.4 °F 60.8 °F 88% 30.02 in 10.0 mi Calm Calm - N/A   Clear
9:12 PM 64.4 °F 60.8 °F 88% 30.03 in 10.0 mi Calm Calm - N/A   Clear
9:32 PM 62.6 °F 59.0 °F 88% 30.03 in 10.0 mi Calm Calm - N/A   Clear
9:52 PM 62.6 °F 60.8 °F 94% 30.02 in 10.0 mi Calm Calm - N/A   Clear
10:13 PM 62.6 °F 59.0 °F 88% 30.01 in 10.0 mi Calm Calm - N/A   Clear
10:32 PM 62.6 °F 59.0 °F 88% 30.02 in 10.0 mi Calm Calm - N/A   Clear
10:52 PM 62.6 °F 59.0 °F 88% 30.02 in 10.0 mi Calm Calm - N/A   Clear
11:12 PM 62.6 °F 59.0 °F 88% 30.02 in 10.0 mi Calm Calm - N/A   Clear
11:32 PM 62.6 °F 57.2 °F 82% 30.02 in 10.0 mi South 3.5 mph - N/A   Clear
11:52 PM 60.8 °F 57.2 °F 88% 30.02 in 10.0 mi Calm Calm - N/A   Scattered Clouds